Regional Weather Roundup
Issued by NWS Grand Forks, ND

Home | Current Version | Previous Version | Graphics & Text | Print | Product List | Glossary On
Versions: 1 2 3 4 5 6 7 8 9 10 11 12 13 14 15 16 17 18 19 20 21 22 23 24 25 26 27 28 29 30 31 32 33 34 35 36 37 38 39 40 41 42 43 44 45 46 47 48 49 50
000
ASUS43 KFGF 270131
RWRFGF
PRAIRIE TO PINES  WEATHER ROUNDUP
NATIONAL WEATHER SERVICE EASTERN NORTH DAKOTA/GRAND FORKS ND
700 PM CST SUN FEB 26 2017

 **SATELLITE DATA USED TO AUGMENT SKY COVER AT AUTOMATED STATIONS**
 *****  WEATHER ACROSS EASTERN NORTH DAKOTA  *****

CITY           SKY/WX    TMP DP  RH WIND       PRES   REMARKS
GRAND FORKS    FAIR      12   3  67 SW8       29.88R WCI   0
GRAND FRKS AFB FAIR      12   6  76 SW6       29.88R WCI   3
DEVILS LAKE    FAIR       8   5  87 SW6       29.84R WCI  -2
FARGO          CLOUDY    20  11  68 SE6       29.90S WCI  12
WAHPETON ARPT    N/A     19  12  73 SE5       29.90S WCI  13
$$

 ***** WEATHER ACROSS CENTRAL AND WESTERN NORTH DAKOTA  *****

CITY           SKY/WX    TMP DP  RH WIND       PRES   REMARKS
BISMARCK       CLOUDY    20  14  77 NE6       29.84R WCI  12
MINOT          FAIR      18  10  71 SW10      29.80R WCI   6
JAMESTOWN      CLOUDY    20  15  81 CALM      29.83S
MINOT AFB      MOCLDY    11   6  81 SW9       29.79S WCI  -2
GARRISON         N/A     14  10  84 SW3       29.80S
WILLISTON      CLOUDY    22  16  78 W5        29.80S WCI  16
DICKINSON      CLOUDY    22  14  71 N8        29.76R WCI  12
HETTINGER      FAIR      24  20  84 N7        29.78R WCI  16
$$

 *****  OTHER AIRPORT OBSERVATIONS IN OUR AREA  *****

CITY           SKY/WX    TMP DP  RH WIND       PRES   REMARKS
WALHALLA       NOT AVBL
GRAFTON AIRPOR FAIR      10   7  85 SW8       29.89S WCI  -1
VALLEY CITY AR FLURRIES  19  18  93 SW7       29.86F WCI  10
CANDO          NOT AVBL
CAVALIER APRT    N/A     16   9  73 SW7       29.85R WCI   6
GWINNER        MOCLDY    25  19  80 E6        29.86S WCI  18
ROLLA          MOCLDY    10   5  79 SW14      29.78S WCI  -5
 ***** THE ABOVE OBSERVATIONS ARE NON NWS ARE NOT QUALITY
       CONTROLLED AND MAY MIS-REPORT RAIN FOR SNOW...
$$

  *****  WEATHER ACROSS NORTHERN MINNESOTA  *****

CITY           SKY/WX    TMP DP  RH WIND       PRES   REMARKS
FLAG ISLAND    FAIR      14   1  57 SW7       29.81R WCI   4
WARROAD        FAIR      12   5  73 SW9       29.84S WCI   0
ROSEAU         FAIR      12   7  79 SW7       29.85R WCI   2
HALLOCK        FAIR      14   9  79 S9        29.86R WCI   2
THF RVR FALLS  FAIR      12   6  77 SW8       29.88R WCI   0
BAUDETTE       FAIR      15  -1  49 W7        29.82R WCI   5
WASKISH        FAIR      12   5  73 W9        29.86R WCI   0
CROOKSTON      FAIR      12   9  85 S6        29.90S WCI   3
STEPHEN NDAWN    N/A     14   9  79 S7          N/A  WCI   4
GREENBUSH NDAW   N/A     12   7  79 SW7         N/A  WCI   2
$$
  *****  WEATHER ACROSS CENTRAL AND WEST MINNESOTA  *****

CITY           SKY/WX    TMP DP  RH WIND       PRES   REMARKS
FOSSTON        FAIR       9   5  85 S6        29.88S WCI  -1
BEMIDJI        FAIR      13   5  70 W6        29.86R WCI   4
PARK RAPIDS    FAIR      12   1  61 W6        29.86R WCI   3
ELBOW LAKE     CLOUDY    15   9  75 NE6       29.88F WCI   7
WADENA         CLOUDY    10   3  72 W5        29.88S WCI   2
DETROIT LAKES  CLOUDY    18  10  73 CALM      29.89S
MOORHEAD       CLOUDY    18   9  68 E5        29.91S WCI  11
FERGUS FALLS   FAIR      16   9  73 W5        29.93F WCI   9
MORRIS MN      FAIR      19  12  73 NE7       29.88F WCI  10
STAPLES        FAIR       9   1  72 W5        29.89R WCI   0
$$
  *****  WEATHER ELSEWHERE ACROSS MINNESOTA  *****

CITY           SKY/WX    TMP DP  RH WIND       PRES   REMARKS
DULUTH         FAIR      16   1  51 W7        29.85R WCI   6
INTRNTL FALLS  FAIR      10   0  63 SW5       29.82R WCI   2
ELY            FAIR       9  -2  61 CALM      29.82R
CLOQUET        FAIR      16   0  48 CALM      29.87R
WHEATON        FAIR      19  12  73 E7        29.91S WCI  10
BRAINERD       FAIR      19   6  57 W5        29.88R WCI  12
HIBBING        FAIR      13  -3  49 W3        29.84R
ALEXANDRIA     CLOUDY    19  10  68 NW5       29.89R WCI  12
SAINT CLOUD    CLOUDY    27  11  51 NW7       29.90R WCI  19
MINNEAPOLIS    FAIR      29  12  49 NW9       29.91R WCI  20
$$

  *****  WEATHER ACROSS SOUTH DAKOTA  *****

CITY           SKY/WX    TMP DP  RH WIND       PRES   REMARKS
SIOUX FALLS    FAIR      31  25  78 SW8       29.88S WCI  23
BROOKINGS      FAIR      31  25  78 S10       29.84R WCI  22
WATERTOWN      CLOUDY    28  19  69 E9        29.82R WCI  19
HURON          CLOUDY    37  19  48 SW7       29.82R
SISSETON         N/A     22  18  85 SE7       29.87S WCI  13
ABERDEEN       CLOUDY    29  21  72 SE5       29.82S WCI  24
MITCHELL       FAIR      33  23  66 SW9       29.86S
PIERRE         MOCLDY    36  15  42 W6        29.79R
MOBRIDGE       CLOUDY    32  25  75 NE6       29.75S
RAPID CITY     FAIR      28  16  60 CALM      29.75R
$$

  *****  SOME WEATHER IN NEARBY STATES *****

CITY           SKY/WX    TMP DP  RH WIND       PRES   REMARKS
GLASGOW MT     CLOUDY    21  13  71 N6        29.79F WCI  13
GREAT FALLS MT LGT SNOW  18  13  80 N10       29.72F WCI   6
CHEYENNE WY    FAIR      26   7  44 CALM      29.75R
SCOTTSBLUFF NE FAIR      24  11  57 CALM      29.82S
OMAHA NE       FAIR      36  25  64 NE3       29.97R
DES MOINES IA  FAIR      38  19  46 N5        29.98R
DAVENPORT IA   FAIR      38  28  67 SW8       29.98R
CHICAGO IL     CLOUDY    45  26  47 SW16G22   29.98R
EAU CLAIRE WI  FAIR      28  18  66 W3        29.89R
LA CROSSE WI   FAIR      33  23  66 SW9       29.94R
$$

  *****  SOME NATIONAL WEATHER *****

CITY           SKY/WX    TMP DP  RH WIND       PRES   REMARKS
LA GUARDIA NY  FAIR      41  16  36 W16G24    30.19R
RALEIGH NC     FAIR      44  22  41 CALM      30.27R
ATLANTA GA     FAIR      57  19  22 E3        30.21R
NEW ORLEANS LA MOCLDY    64  54  69 E14       30.09S
OKLAHOMA CITY  FAIR      53  33  46 NW6       29.91R
ALBUQUERQUE NM MOCLDY    42  24  49 SE9       29.91R
SALT LAKE CITY CLOUDY    39  20  46 S12       29.73F
LOS ANGELES CA MOCLDY    55  44  66 S12       29.95S
BOISE ID       LGT SNOW  31  30  96 E3        29.71R VSB 3/4
SEATTLE WA     CLOUDY    39  36  89 NW8       29.71R
$$

*** WEATHER ACROSS MANITOBA...SASKATCHEWAN AND ONTARIO ***
                ***ONTARIO***

CITY           SKY/WX    TMP DP  RH WIND       PRES   REMARKS
GERALDTON      FLURRIES  12   5  73 W9        29.68R WCI   0
THUNDER BAY    CLEAR     12   0  57 W5        29.85R WCI   4
SIOUX LOOKOUT  PTCLDY     7  -2  66 W3        29.76R
TORONTO        PTCLDY    32  18  55 SW14G21   30.00R WCI  22
BIG TROUT LK   CLEAR      1  -6  71 W8        29.69R WCI -12
PICKLE LAKE    FLURRIES   7  -2  66 W8        29.69R WCI  -6
DRYDEN         CLEAR      9   1  72 SW5       29.76R WCI   0
KENORA         PTCLDY    12   0  57 W7        29.76R WCI   2
$$
                *** MANITOBA***

CITY           SKY/WX    TMP DP  RH WIND       PRES   REMARKS
BRANDON        FLURRIES  12  10  92 SW9       29.77R WCI   0
DAUPHIN        CLEAR     16   9  73 W14       29.74R WCI   1
ISLAND LAKE    CLEAR     -2  -9  71 W5        29.74R WCI -12
PILOT MOUND      N/A     10   7  85 SW7         N/A  WCI   0
THE PAS        FLURRIES   5  -2  72 N8        29.80R WCI  -8
THOMPSON       PTCLDY    -8 -17  65 NW6       29.78  WCI -21
WINNIPEG       MOCLDY    19  12  73 SW13      29.79S WCI   7
LYNN LAKE      CLEAR    -15 -20  76 W7        29.78S WCI -31
CHURCHILL      CRYSTALS -20 -26  76 NW14G22   29.78S WCI -44
GILLAM         CLEAR    -13 -20  70 NW7       29.77R WCI -29
$$
                ***SASKATCHEWAN***

CITY           SKY/WX    TMP DP  RH WIND       PRES   REMARKS
ESTEVAN        MOCLDY     7   3  85 SW3       29.77S
KINDERSLEY     PTCLDY     7  -2  66 N14       29.81R WCI -10
LLOYDMINSTER   PTCLDY     0  -8  71 NW5       29.83F WCI -10
PRINCE ALBERT  PTCLDY     3  -8  60 N8        29.83R WCI -10
REGINA         MOCLDY    18   9  68 NW18G28   29.75R WCI   2
YORKTON        CLOUDY    12   7  79 N6        29.72S WCI   3
N. BATTLEFORD  CLEAR      3  -6  66 NW10      29.87R WCI -12
LA RONGE       PTCLDY     1  -8  66 W10       29.84R WCI -14
SASKATOON      PTCLDY     3  -6  66 NW12      29.84R WCI -13
SWIFT CURRENT  CLOUDY    12   5  73 NW10      29.75R WCI  -1
$$
NOTE: THESE ARE AUTOMATED STATIONS WITH LIMITED QUALITY CONTROL
      "FAIR" INDICATES FEW OR NO CLOUDS BELOW 12,000 FEET WITH NO
      SIGNIFICANT WEATHER AND/OR OBSTRUCTIONS TO VISIBILITY.
      SKY/WX - SKY CONDITION AND SIGNIFICANT WEATHER.
      TMP - AIR TEMPERATURE.    DP   - DEWPOINT TEMPERATURE.
      RH  - RELATIVE HUMIDITY.  PRES - PRESSURE.
      HX  - HEAT INDEX.         WCI  - WIND CHILL INDEX.
$



USA.gov is the U.S. government's official web portal to all federal, state and local government web resources and services.